This is the latest recevied weather packets stored in our database for station/object n3uvr. If no packets are shown the sender has not sent any weather packets the latest 1 day(s).
| Time | Temp. | Humidity | Pressure | Rain* | Wind** | Luminosity | Snow |
|---|---|---|---|---|---|---|---|
| 1778062397 | 16.67° C | 64% | 1005.9 hPa | 0 mm | 0 m/s | 0 W/m² | - |
| 1778061806 | 16.11° C | 64% | 1005.7 hPa | 0 mm | 0 m/s | 0 W/m² | - |
| 1778061192 | 16.11° C | 65% | 1005.7 hPa | 0 mm | 0 m/s | 0 W/m² | - |
| 1778060603 | 16.11° C | 66% | 1005.8 hPa | 0 mm | 0 m/s | 0 W/m² | - |
| 1778059994 | 16.11° C | 66% | 1006 hPa | 0 mm | 0 m/s | 0 W/m² | - |
| 1778059376 | 16.11° C | 66% | 1005.9 hPa | 0 mm | 0 m/s | 0 W/m² | - |
| 1778058749 | 16.11° C | 67% | 1006.3 hPa | 0 mm | 0 m/s | 0 W/m² | - |
| 1778058126 | 16.11° C | 67% | 1006.2 hPa | 0 mm | 0 m/s | 0 W/m² | - |
| 1778056930 | 16.67° C | 66% | 1005.9 hPa | 0 mm | 0 m/s | 0 W/m² | - |
| 1778055146 | 16.67° C | 66% | 1006.1 hPa | 0 mm | 0 m/s | 0 W/m² | - |
| 1778053995 | 16.67° C | 65% | 1006.4 hPa | 0 mm | 0 m/s | 0 W/m² | - |
| 1778053394 | 16.67° C | 65% | 1006.3 hPa | 0 mm | 0 m/s | 0 W/m² | - |
| 1778052772 | 16.11° C | 64% | 1006.3 hPa | 0 mm | 0 m/s | 0 W/m² | - |
| 1778052139 | 16.11° C | 65% | 1006.4 hPa | 0 mm | 0 m/s | 0 W/m² | - |
| 1778051525 | 16.11° C | 67% | 1006.5 hPa | 0 mm | 0 m/s | 0 W/m² | - |
| 1778050319 | 15.56° C | 69% | 1006.6 hPa | 0 mm | 0 m/s | 0 W/m² | - |
| 1778047284 | 15.56° C | 71% | 1007 hPa | 0 mm | 0 m/s | 0 W/m² | - |
| 1778046700 | 15.56° C | 70% | 1007.1 hPa | 0 mm | 0 m/s | 0 W/m² | - |
| 1778045524 | 16.11° C | 68% | 1007 hPa | 0 mm | 0 m/s | 0 W/m² | - |
| 1778044931 | 16.67° C | 67% | 1007 hPa | 0 mm | 0 m/s | 0 W/m² | - |
| 1778044317 | 16.67° C | 67% | 1007.1 hPa | 0 mm | 0 m/s | 0 W/m² | - |
| 1778043713 | 16.67° C | 66% | 1007.2 hPa | 0 mm | 0 m/s | 0 W/m² | - |
| 1778042509 | 17.22° C | 65% | 1007.2 hPa | 0 mm | 0 m/s | 0 W/m² | - |
| 1778041890 | 17.78° C | 64% | 1007.3 hPa | 0 mm | 0 m/s | 0 W/m² | - |
| 1778041290 | 17.78° C | 63% | 1007.4 hPa | 0 mm | 0 m/s | 0 W/m² | - |
* Rain latest hour (hover to see other rain measurements)
** Current wind speed in m/s (hover to see current wind gust speed)